Location: Buckland
(65.9785°N, 161.1281°W)
Time: 23:48:29
(UTC+00:00)

Transit 4A - Pass Details

Date: 04 December 2020
Orbit: 864 x 980 km, 66.8° (Epoch: 20 January)

Event Time Altitude Azimuth Distance (km) Brightness Sun altitude
Rises 00:09:59 0° 295° (WNW) 3,694 11.0 -0.1°
Reaches altitude 10° 00:12:35 10° 293° (WNW) 2,744 10.4 -0.2°
Maximum altitude 00:18:59 71° 212° (SSW) 1,031 8.5 -0.4°
Drops below altitude 10° 00:25:16 10° 129° (SE) 2,696 10.5 -0.7°
Sets 00:27:47 0° 128° (SE) 3,625 11.1 -0.8°
